Location: Newark
(46.9000°N, 28.3500°E)
Time: 20:13:48
(UTC+00:00)

S-56A Canister/Altair - Visible Passes

Search period start: 19 August 2019 00:00
Search period end: 29 August 2019 00:00
Orbit: 633 x 2499 km, 38.9° (Epoch: 18 August)

Date Brightness Start Highest point End Pass type
(mag) Time Alt. Az. Time Alt. Az. Time Alt. Az.
19 Aug 9.2 00:31:29 24° SSE 00:31:29 24° SSE 00:35:36 10° SE visible
19 Aug 9.8 02:29:47 10° WSW 02:33:00 14° SSW 02:36:44 10° S visible
20 Aug 10.0 00:01:27 14° SE 00:01:27 14° SE 00:02:34 10° SE visible
20 Aug 9.6 01:58:58 13° SW 02:00:18 14° SSW 02:04:05 10° S visible
21 Aug 9.8 01:29:03 14° SSW 01:29:03 14° SSW 01:31:24 10° S visible
21 Aug 9.3 18:43:39 10° S 18:44:23 12° S 18:44:23 12° S visible
22 Aug 9.0 18:11:30 10° S 18:13:33 13° SSE 18:13:58 12° SSE visible
23 Aug 9.2 17:39:24 10° S 17:41:03 11° SSE 17:42:37 10° SE visible
23 Aug 9.3 19:40:02 10° SW 19:40:53 14° SW 19:40:53 14° SW visible
24 Aug 8.6 19:07:29 10° SW 19:10:14 22° SSW 19:10:14 22° SSW visible
25 Aug 8.3 18:34:53 10° SW 18:38:59 24° SSE 18:39:31 24° SSE visible
26 Aug 8.6 18:02:13 10° SW 18:06:29 23° SSE 18:08:43 17° SE visible
26 Aug 9.5 20:05:21 10° WSW 20:06:09 14° WSW 20:06:09 14° WSW visible
27 Aug 8.8 17:29:28 10° SW 17:33:58 23° SSE 17:37:42 10° ESE visible
27 Aug 8.7 19:32:40 10° WSW 19:35:17 24° SW 19:35:17 24° SW visible
28 Aug 8.1 18:59:56 10° WSW 19:04:24 32° S 19:04:24 32° S visible
